| time (UTC) | temp C | wind direction | speed KPH | gust KPH | rain 1hr cm | rain 24hr cm | rain mn cm | humidity % | barometer mb |
| 20260902140035 | 18 | 102 | 0.0 | 3.2 | 0.00 | 1.55 | 0.00 | 86 | 1021.7 |
| 20260902134519 | 18 | 105 | 0.0 | 9.7 | 0.00 | 1.55 | 0.00 | 87 | 1021.6 |
| 20260902133018 | 17 | 111 | 0.0 | 1.6 | 0.00 | 1.55 | 0.00 | 88 | 1021.4 |
| 20260902131516 | 17 | 116 | 0.0 | 11.3 | 0.00 | 1.96 | 0.00 | 89 | 1021.3 |
| 20260902130013 | 17 | 95 | 0.0 | 12.9 | 0.00 | 1.96 | 0.00 | 89 | 1021.2 |
| 20260902123020 | 17 | 88 | 0.0 | 0.0 | 0.00 | 1.96 | 0.00 | 89 | 1021.4 |
| 20260902121508 | 16 | 88 | 0.0 | 9.7 | 0.00 | 2.21 | 0.00 | 90 | 1021.5 |
| 20260902120005 | 16 | 92 | 0.0 | 4.8 | 0.00 | 2.21 | 0.00 | 90 | 1021.5 |
| 20260902114501 | 16 | 93 | 0.0 | 0.0 | 0.00 | 2.21 | 0.00 | 90 | 1021.6 |
| 20260902113059 | 16 | 93 | 0.0 | 4.8 | 0.00 | 2.21 | 0.00 | 90 | 1021.6 |
| 20260902111601 | 16 | 92 | 0.0 | 6.4 | 0.00 | 2.24 | 0.00 | 90 | 1021.6 |
| 20260902110104 | 16 | 93 | 0.0 | 4.8 | 0.00 | 2.24 | 0.00 | 90 | 1021.4 |
| 20260902104537 | 15 | 92 | 0.0 | 0.0 | 0.00 | 2.24 | 0.00 | 90 | 1021.3 |
| 20260902103039 | 16 | 92 | 0.0 | 0.0 | 0.00 | 2.24 | 0.00 | 90 | 1021.2 |
| 20260902101547 | 15 | 92 | 0.0 | 0.0 | 0.00 | 2.24 | 0.00 | 90 | 1021.0 |
| 20260902100045 | 15 | 92 | 0.0 | 0.0 | 0.00 | 2.24 | 0.00 | 90 | 1020.9 |
| 20260902094544 | 15 | 92 | 0.0 | 0.0 | 0.00 | 2.24 | 0.00 | 90 | 1020.7 |
| 20260902093040 | 15 | 92 | 0.0 | 0.0 | 0.00 | 2.24 | 0.00 | 90 | 1020.4 |
| 20260902091534 | 15 | 90 | 0.0 | 0.0 | 0.00 | 2.24 | 0.00 | 90 | 1020.3 |
| 20260902090033 | 15 | 90 | 0.0 | 0.0 | 0.00 | 2.24 | 0.00 | 90 | 1020.4 |
| 20260902084538 | 15 | 90 | 0.0 | 0.0 | 0.00 | 2.24 | 0.00 | 90 | 1020.4 |
| 20260902083029 | 15 | 90 | 0.0 | 0.0 | 0.00 | 2.24 | 0.00 | 90 | 1020.2 |
| 20260902081530 | 15 | 90 | 0.0 | 0.0 | 0.00 | 2.24 | 0.00 | 90 | 1020.1 |
| 20260902080028 | 15 | 90 | 0.0 | 0.0 | 0.00 | 2.24 | 0.00 | 90 | 1020.3 |
| 20260902074557 | 15 | 90 | 0.0 | 0.0 | 0.00 | 2.24 | 0.00 | 90 | 1020.0 |
| 20260902073053 | 15 | 90 | 0.0 | 0.0 | 0.00 | 2.24 | 0.00 | 90 | 1020.1 |
| 20260902071548 | 15 | 92 | 0.0 | 0.0 | 0.00 | 2.24 | 0.00 | 90 | 1020.3 |
| 20260902070048 | 15 | 92 | 0.0 | 0.0 | 0.00 | 2.24 | 0.00 | 91 | 1020.2 |
| 20260902064547 | 15 | 92 | 0.0 | 0.0 | 0.00 | 2.24 | 0.00 | 91 | 1020.4 |
| 20260902061513 | 15 | 92 | 0.0 | 0.0 | 0.00 | 2.24 | 0.00 | 91 | 1020.3 |
| 20260902060010 | 15 | 92 | 0.0 | 0.0 | 0.00 | 2.24 | 0.00 | 91 | 1020.3 |
| 20260902054545 | 15 | 92 | 0.0 | 0.0 | 0.00 | 2.24 | 0.00 | 91 | 1020.0 |
| 20260902053034 | 15 | 92 | 0.0 | 0.0 | 0.00 | 2.24 | 0.00 | 91 | 1019.7 |
| 20260902051531 | 15 | 92 | 0.0 | 0.0 | 0.00 | 2.24 | 0.00 | 91 | 1019.7 |
| 20260902050029 | 15 | 92 | 0.0 | 0.0 | 0.00 | 2.24 | 0.00 | 91 | 1019.9 |
| 20260902044528 | 15 | 92 | 0.0 | 0.0 | 0.00 | 2.24 | 0.00 | 91 | 1019.8 |
| 20260902043027 | 15 | 92 | 0.0 | 0.0 | 0.00 | 2.24 | 0.00 | 91 | 1019.7 |
| 20260902041525 | 15 | 92 | 0.0 | 0.0 | 0.00 | 2.24 | 0.00 | 91 | 1019.7 |
| 20260902040023 | 15 | 92 | 0.0 | 0.0 | 0.00 | 2.24 | 0.00 | 91 | 1019.3 |
| 20260902034521 | 15 | 92 | 0.0 | 0.0 | 0.00 | 2.24 | 0.00 | 91 | 1019.2 |
| 20260902033021 | 15 | 92 | 0.0 | 0.0 | 0.00 | 2.24 | 0.00 | 91 | 1019.1 |
| 20260902031518 | 15 | 92 | 0.0 | 0.0 | 0.00 | 2.24 | 0.00 | 91 | 1018.8 |
| 20260902030017 | 15 | 92 | 0.0 | 0.0 | 0.00 | 2.24 | 0.00 | 91 | 1018.8 |
| 20260902024516 | 15 | 92 | 0.0 | 0.0 | 0.00 | 2.24 | 0.00 | 91 | 1019.3 |
| 20260902023016 | 15 | 92 | 0.0 | 0.0 | 0.00 | 2.24 | 0.00 | 91 | 1018.9 |
| 20260902021517 | 15 | 92 | 0.0 | 0.0 | 0.00 | 2.24 | 0.00 | 91 | 1018.8 |
| 20260902020012 | 15 | 92 | 0.0 | 0.0 | 0.00 | 2.24 | 0.00 | 91 | 1019.0 |
| 20260902014525 | 15 | 92 | 0.0 | 0.0 | 0.00 | 2.24 | 0.00 | 91 | 1018.9 |
| 20260902013008 | 15 | 92 | 0.0 | 3.2 | 0.00 | 2.24 | 0.00 | 91 | 1018.9 |
| 20260902011506 | 15 | 91 | 0.0 | 0.0 | 0.00 | 2.24 | 0.00 | 91 | 1018.7 |
| 20260902010003 | 15 | 91 | 0.0 | 0.0 | 0.00 | 2.24 | 0.00 | 91 | 1018.5 |
| 20260902004505 | 15 | 91 | 0.0 | 0.0 | 0.00 | 2.24 | 0.00 | 91 | 1018.6 |
| 20260902003003 | 15 | 91 | 0.0 | 0.0 | 0.00 | 2.24 | 0.00 | 91 | 1018.4 |
| 20260902001600 | 15 | 91 | 0.0 | 0.0 | 0.00 | 2.24 | 0.00 | 91 | 1018.3 |
| 20260902000053 | 15 | 91 | 0.0 | 0.0 | 0.00 | 2.24 | 0.00 | 91 | 1018.2 |
| 20260901234558 | 15 | 91 | 0.0 | 0.0 | 0.00 | 2.24 | 0.00 | 91 | 1018.4 |
| 20260901233047 | 15 | 91 | 0.0 | 0.0 | 0.00 | 2.24 | 0.00 | 91 | 1018.2 |
| 20260901231623 | 15 | 91 | 0.0 | 0.0 | 0.00 | 2.24 | 0.00 | 91 | 1018.1 |
| 20260901230037 | 15 | 91 | 0.0 | 0.0 | 0.00 | 2.24 | 0.00 | 91 | 1018.1 |
| 20260901224521 | 15 | 90 | 0.0 | 0.0 | 0.00 | 2.24 | 0.00 | 91 | 1018.0 |
| 20260901223015 | 15 | 91 | 0.0 | 9.7 | 0.00 | 2.24 | 0.00 | 91 | 1017.9 |
| 20260901221514 | 15 | 89 | 0.0 | 4.8 | 0.00 | 2.24 | 2.24 | 91 | 1018.1 |
| 20260901220011 | 16 | 88 | 0.0 | 4.8 | 0.00 | 2.24 | 2.24 | 91 | 1018.0 |
| 20260901214510 | 16 | 97 | 0.0 | 3.2 | 0.05 | 2.24 | 2.24 | 91 | 1017.8 |
| 20260901213027 | 16 | 98 | 0.0 | 0.0 | 0.13 | 2.24 | 2.24 | 91 | 1017.6 |
| 20260901211508 | 16 | 100 | 0.0 | 0.0 | 0.13 | 2.24 | 2.24 | 91 | 1017.6 |
| 20260901210017 | 16 | 101 | 0.0 | 0.0 | 0.13 | 2.24 | 2.24 | 91 | 1017.5 |
| 20260901204508 | 16 | 101 | 0.0 | 0.0 | 0.10 | 2.18 | 2.18 | 91 | 1017.5 |
| 20260901203008 | 16 | 101 | 0.0 | 0.0 | 0.03 | 2.11 | 2.11 | 91 | 1017.5 |
| 20260901201506 | 16 | 101 | 0.0 | 0.0 | 0.05 | 2.11 | 2.11 | 91 | 1017.4 |
| 20260901200003 | 16 | 83 | 0.0 | 6.4 | 0.13 | 2.11 | 2.11 | 91 | 1017.3 |
| 20260901194502 | 16 | 78 | 0.0 | 6.4 | 0.13 | 2.08 | 2.08 | 91 | 1017.3 |
| 20260901193000 | 16 | 143 | 0.0 | 0.0 | 0.15 | 2.08 | 2.08 | 91 | 1017.2 |
| 20260901191615 | 16 | 145 | 0.0 | 1.6 | 0.13 | 2.06 | 2.06 | 91 | 1017.3 |
| 20260901191500 | 16 | 145 | 0.0 | 1.6 | 0.10 | 2.03 | 2.03 | 91 | 1017.3 |
| 20260901190034 | 16 | 148 | 0.0 | 0.0 | 0.05 | 1.98 | 1.98 | 91 | 1017.1 |
| 20260901184539 | 16 | 59 | 0.0 | 1.6 | 0.03 | 1.96 | 1.96 | 91 | 1017.1 |
| 20260901183026 | 16 | 38 | 0.0 | 6.4 | 0.03 | 1.93 | 1.93 | 91 | 1017.1 |
| 20260901181525 | 16 | 89 | 0.0 | 4.8 | 0.18 | 1.93 | 1.93 | 91 | 1017.2 |
| 20260901180023 | 16 | 89 | 0.0 | 0.0 | 0.38 | 1.93 | 1.93 | 91 | 1016.9 |
| 20260901174523 | 16 | 93 | 0.0 | 6.4 | 0.41 | 1.93 | 1.93 | 91 | 1016.8 |
| 20260901173053 | 16 | 124 | 0.0 | 9.7 | 0.41 | 1.91 | 1.91 | 91 | 1016.3 |
| 20260901171559 | 16 | 94 | 0.0 | 6.4 | 0.25 | 1.75 | 1.75 | 91 | 1016.7 |
| 20260901164540 | 17 | 77 | 0.0 | 12.9 | 0.05 | 1.52 | 1.52 | 91 | 1016.4 |
| 20260901163038 | 17 | 80 | 0.0 | 11.3 | 0.05 | 1.50 | 1.50 | 91 | 1016.4 |
| 20260901161539 | 17 | 95 | 0.0 | 9.7 | 0.10 | 1.50 | 1.50 | 91 | 1016.3 |
| 20260901160106 | 18 | 88 | 0.0 | 6.4 | 0.15 | 1.50 | 1.50 | 91 | 1016.5 |
| 20260901154512 | 18 | 74 | 0.0 | 9.7 | 0.18 | 1.45 | 1.45 | 91 | 1016.5 |
| 20260901153103 | 18 | 37 | 0.0 | 14.5 | 0.20 | 1.42 | 1.42 | 91 | 1016.6 |
| 20260901151535 | 18 | 101 | 0.0 | 6.4 | 0.28 | 1.40 | 1.40 | 91 | 1016.8 |
| 20260901150030 | 18 | 117 | 0.0 | 0.0 | 0.28 | 1.32 | 1.32 | 91 | 1016.8 |
| 20260901144529 | 18 | 119 | 0.0 | 4.8 | 0.38 | 1.30 | 1.30 | 91 | 1016.9 |
| 20260901143029 | 18 | 123 | 0.0 | 4.8 | 0.51 | 1.24 | 1.24 | 92 | 1016.9 |
| 20260901141537 | 18 | 128 | 0.0 | 0.0 | 0.64 | 1.12 | 1.12 | 91 | 1017.0 |